Location: Aldenham
(51.6667°N, 0.3500°W)
Time: 01:06:56
(UTC+00:00)

Vanguard 2 - Pass Details

Date: 26 February 2026
Orbit: 553 x 2896 km, 32.9° (Epoch: 7 March)

Event Time Altitude Azimuth Distance (km) Brightness Sun altitude
Exits shadow 03:57:10 16° 177° (S) 2,710 10.1 -27.7°
Drops below altitude 10° 04:00:46 10° 144° (SE) 2,765 10.5 -27.2°
Sets 04:04:02 0° 122° (ESE) 3,387 11.3 -26.7°
